QPF
0.02 0.02 0.02 0.01 0.01 0.01 0.01 0.01 0.01 0.01 0.01 0.00 0.00 0.00 0.00 0.01 0.02 0.01 0.01 0.01 0.02 0.02 0.02 0.02 0.01 0.01 0.01 0.01 0.01 0.01 0.01 0.02 0.03 0.04 0.05 0.05 0.05 0.05
0.02 0.02 0.02 0.02 0.01 0.01 0.01 0.01 0.01 0.01 0.01 0.01 0.01 0.01 0.01 0.01 0.01 0.01 0.01 0.02 0.02 0.02 0.02 0.03 0.02 0.02 0.02 0.01 0.01 0.02 0.02 0.03 0.04 0.05 0.06 0.07 0.07 0.07
0.03 0.02 0.02 0.02 0.02 0.01 0.01 0.01 0.01 0.01 0.01 0.02 0.01 0.02 0.02 0.01 0.01 0.01 0.01 0.01 0.02 0.02 0.03 0.03 0.03 0.03 0.02 0.02 0.02 0.02 0.02 0.03 0.04 0.06 0.08 0.07 0.07 0.07
0.02 0.03 0.02 0.02 0.02 0.01 0.02 0.02 0.02 0.01 0.02 0.02 0.02 0.02 0.02 0.02 0.02 0.02 0.02 0.02 0.02 0.03 0.02 0.02 0.02 0.02 0.02 0.03 0.03 0.03 0.03 0.03 0.04 0.05 0.05 0.06 0.06 0.06
0.02 0.02 0.02 0.02 0.02 0.02 0.02 0.02 0.02 0.02 0.02 0.02 0.02 0.02 0.02 0.02 0.03 0.03 0.02 0.02 0.02 0.02 0.02 0.02 0.01 0.01 0.01 0.02 0.02 0.03 0.03 0.03 0.03 0.03 0.03 0.04 0.04 0.04
0.02 0.02 0.02 0.02 0.02 0.02 0.02 0.02 0.02 0.02 0.02 0.02 0.02 0.02 0.02 0.02 0.02 0.02 0.02 0.02 0.02 0.01 0.01 0.01 0.01 0.01 0.01 0.02 0.02 0.03 0.03 0.03 0.02 0.02 0.02 0.03 0.03 0.03
0.02 0.02 0.02 0.02 0.03 0.03 0.03 0.02 0.03 0.03 0.03 0.03 0.02 0.02 0.02 0.01 0.01 0.01 0.01 0.01 0.01 0.01 0.01 0.01 0.01 0.01 0.01 0.01 0.01 0.02 0.02 0.02 0.02 0.02 0.02 0.02 0.02 0.02
0.02 0.02 0.02 0.02 0.03 0.03 0.03 0.04 0.04 0.03 0.03 0.03 0.02 0.02 0.01 0.01 0.01 0.01 0.01 0.01 0.01 0.01 0.00 0.01 0.01 0.01 0.01 0.01 0.01 0.01 0.01 0.01 0.01 0.01 0.01 0.01 0.01 0.01
0.02 0.02 0.02 0.02 0.02 0.02 0.03 0.03 0.03 0.03 0.03 0.03 0.03 0.02 0.01 0.01 0.01 0.01 0.01 0.01 0.01 0.00 0.00 0.00 0.00 0.00 0.01 0.01 0.02 0.02 0.01 0.01 0.01 0.01 0.01 0.01 0.01 0.01
0.02 0.02 0.02 0.02 0.02 0.02 0.03 0.03 0.03 0.02 0.02 0.02 0.02 0.01 0.01 0.01 0.01 0.02 0.02 0.02 0.01 0.01 0.01 0.01 0.00 0.00 0.01 0.01 0.02 0.02 0.02 0.02 0.02 0.01 0.01 0.01 0.01 0.01
0.02 0.02 0.02 0.01 0.02 0.03 0.03 0.03 0.03 0.02 0.02 0.02 0.02 0.03 0.03 0.03 0.03 0.03 0.03 0.02 0.02 0.01 0.01 0.01 0.01 0.00 0.01 0.01 0.02 0.02 0.02 0.01 0.01 0.01 0.01 0.01 0.02 0.01
0.02 0.02 0.02 0.02 0.03 0.03 0.03 0.03 0.04 0.03 0.02 0.02 0.02 0.03 0.03 0.03 0.03 0.02 0.03 0.03 0.02 0.02 0.01 0.01 0.01 0.01 0.01 0.01 0.01 0.01 0.01 0.01 0.01 0.01 0.01 0.01 0.02 0.01
0.02 0.01 0.02 0.02 0.03 0.03 0.03 0.03 0.03 0.03 0.03 0.03 0.03 0.03 0.03 0.03 0.03 0.02 0.03 0.03 0.04 0.03 0.03 0.03 0.02 0.01 0.01 0.01 0.01 0.01 0.01 0.01 0.01 0.01 0.01 0.01 0.02 0.02
0.02 0.01 0.02 0.03 0.03 0.03 0.03 0.03 0.03 0.03 0.03 0.02 0.02 0.02 0.02 0.02 0.02 0.02 0.02 0.02 0.02 0.02 0.02 0.02 0.02 0.02 0.02 0.01 0.01 0.01 0.01 0.01 0.01 0.01 0.01 0.01 0.01 0.01
0.02 0.02 0.02 0.03 0.04 0.03 0.03 0.03 0.03 0.02 0.02 0.02 0.02 0.01 0.01 0.01 0.01 0.01 0.01 0.01 0.01 0.01 0.01 0.01 0.01 0.01 0.01 0.01 0.01 0.01 0.00 0.01 0.01 0.01 0.01 0.01 0.01 0.02
0.02 0.03 0.03 0.04 0.04 0.03 0.03 0.03 0.02 0.02 0.01 0.01 0.01 0.01 0.01 0.01 0.01 0.01 0.01 0.01 0.01 0.01 0.00 0.00 0.01 0.01 0.01 0.01 0.01 0.01 0.01 0.00 0.00 0.01 0.01 0.01 0.01 0.01
0.03 0.03 0.04 0.04 0.04 0.03 0.02 0.02 0.02 0.02 0.02 0.01 0.01 0.01 0.01 0.01 0.01 0.01 0.01 0.01 0.01 0.01 0.00 0.00 0.00 0.00 0.01 0.01 0.01 0.01 0.01 0.00 0.00 0.00 0.00 0.00 0.01 0.01
0.04 0.03 0.03 0.03 0.03 0.03 0.02 0.02 0.02 0.02 0.02 0.02 0.02 0.02 0.02 0.01 0.01 0.01 0.01 0.01 0.01 0.00 0.00 0.00 0.00 0.00 0.00 0.01 0.01 0.01 0.00 0.00 0.00 0.00 0.00 0.00 0.01 0.01
0.04 0.03 0.02 0.02 0.02 0.02 0.02 0.02 0.02 0.02 0.02 0.02 0.02 0.02 0.02 0.02 0.02 0.01 0.01 0.01 0.01 0.00 0.00 0.00 0.00 0.01 0.01 0.01 0.00 0.00 0.00 0.00 0.00 0.00 0.00 0.01 0.01 0.01
0.03 0.03 0.03 0.02 0.02 0.02 0.02 0.02 0.02 0.02 0.02 0.02 0.02 0.02 0.02 0.02 0.02 0.02 0.01 0.01 0.01 0.01 0.00 0.00 0.00 0.01 0.01 0.01 0.01 0.00 0.00 0.00 0.00 0.00 0.00 0.00 0.00 0.00
0.02 0.02 0.03 0.03 0.02 0.02 0.02 0.02 0.02 0.02 0.02 0.02 0.02 0.02 0.02 0.02 0.02 0.02 0.01 0.01 0.01 0.01 0.01 0.00 0.00 0.00 0.01 0.01 0.01 0.00 0.00 0.00 0.00 0.01 0.01 0.01 0.01 0.00
0.02 0.02 0.03 0.03 0.02 0.02 0.02 0.02 0.02 0.02 0.02 0.02 0.02 0.02 0.02 0.02 0.02 0.02 0.02 0.01 0.01 0.01 0.01 0.00 0.00 0.01 0.01 0.01 0.01 0.00 0.00 0.00 0.00 0.00 0.01 0.01 0.02 0.03
0.02 0.02 0.02 0.02 0.02 0.02 0.02 0.02 0.02 0.02 0.02 0.02 0.02 0.02 0.02 0.02 0.01 0.01 0.01 0.01 0.01 0.01 0.01 0.01 0.01 0.01 0.01 0.01 0.01 0.01 0.00 0.00 0.00 0.00 0.00 0.00 0.01 0.02
MSLP
1024.25 1024.37 1024.49 1024.58 1024.64 1024.67 1024.65 1024.57 1024.44 1024.24 1023.98 1023.68 1023.33 1022.95 1022.55 1022.13 1021.71 1021.28 1020.85 1020.44 1020.04 1019.69 1019.41 1019.22 1019.14 1019.20 1019.40 1019.74 1020.21 1020.79 1021.42 1022.09 1022.75 1023.36 1023.91 1024.39 1024.77 1025.09
1024.36 1024.53 1024.69 1024.82 1024.92 1024.99 1025.01 1024.96 1024.86 1024.68 1024.43 1024.13 1023.77 1023.36 1022.93 1022.48 1022.02 1021.55 1021.08 1020.61 1020.16 1019.75 1019.39 1019.11 1018.94 1018.89 1018.99 1019.25 1019.64 1020.17 1020.79 1021.48 1022.18 1022.87 1023.50 1024.06 1024.53 1024.90
1024.33 1024.54 1024.74 1024.91 1025.05 1025.15 1025.21 1025.21 1025.14 1025.00 1024.79 1024.51 1024.17 1023.77 1023.34 1022.88 1022.40 1021.91 1021.41 1020.90 1020.41 1019.93 1019.49 1019.12 1018.84 1018.68 1018.66 1018.81 1019.11 1019.57 1020.16 1020.84 1021.57 1022.31 1023.01 1023.65 1024.20 1024.65
1024.16 1024.41 1024.64 1024.85 1025.02 1025.17 1025.27 1025.32 1025.30 1025.22 1025.06 1024.83 1024.53 1024.17 1023.77 1023.33 1022.85 1022.36 1021.85 1021.31 1020.78 1020.24 1019.73 1019.26 1018.87 1018.59 1018.45 1018.46 1018.66 1019.03 1019.56 1020.21 1020.95 1021.73 1022.49 1023.20 1023.83 1024.36
1023.87 1024.15 1024.41 1024.65 1024.85 1025.04 1025.18 1025.28 1025.33 1025.31 1025.22 1025.05 1024.82 1024.53 1024.18 1023.78 1023.34 1022.87 1022.36 1021.82 1021.25 1020.68 1020.10 1019.54 1019.05 1018.65 1018.37 1018.26 1018.34 1018.61 1019.06 1019.67 1020.40 1021.19 1022.00 1022.77 1023.47 1024.07
1023.47 1023.77 1024.05 1024.31 1024.55 1024.76 1024.94 1025.09 1025.20 1025.25 1025.23 1025.15 1025.00 1024.79 1024.51 1024.18 1023.80 1023.37 1022.89 1022.37 1021.80 1021.19 1020.57 1019.95 1019.37 1018.86 1018.48 1018.25 1018.21 1018.38 1018.74 1019.29 1019.98 1020.76 1021.59 1022.41 1023.16 1023.83
1022.97 1023.29 1023.58 1023.85 1024.11 1024.34 1024.56 1024.74 1024.90 1025.01 1025.07 1025.07 1025.01 1024.89 1024.70 1024.46 1024.16 1023.79 1023.37 1022.89 1022.34 1021.74 1021.10 1020.45 1019.82 1019.24 1018.77 1018.45 1018.31 1018.38 1018.66 1019.13 1019.76 1020.52 1021.33 1022.16 1022.94 1023.65
1022.40 1022.72 1023.01 1023.28 1023.54 1023.78 1024.02 1024.23 1024.43 1024.59 1024.72 1024.79 1024.82 1024.79 1024.70 1024.55 1024.34 1024.07 1023.73 1023.31 1022.82 1022.27 1021.65 1021.01 1020.37 1019.76 1019.25 1018.86 1018.65 1018.64 1018.83 1019.22 1019.78 1020.47 1021.25 1022.05 1022.83 1023.55
1021.76 1022.07 1022.35 1022.61 1022.86 1023.11 1023.34 1023.57 1023.79 1023.99 1024.16 1024.31 1024.41 1024.47 1024.48 1024.43 1024.32 1024.15 1023.91 1023.59 1023.19 1022.71 1022.17 1021.58 1020.97 1020.38 1019.87 1019.46 1019.21 1019.13 1019.25 1019.55 1020.03 1020.64 1021.33 1022.07 1022.81 1023.50
1021.08 1021.36 1021.62 1021.86 1022.10 1022.33 1022.56 1022.79 1023.01 1023.24 1023.45 1023.64 1023.81 1023.95 1024.04 1024.10 1024.10 1024.04 1023.91 1023.71 1023.42 1023.05 1022.61 1022.11 1021.58 1021.05 1020.57 1020.18 1019.91 1019.80 1019.86 1020.08 1020.46 1020.96 1021.56 1022.20 1022.85 1023.46
1020.35 1020.60 1020.84 1021.06 1021.28 1021.49 1021.71 1021.94 1022.17 1022.40 1022.64 1022.87 1023.09 1023.29 1023.47 1023.61 1023.71 1023.76 1023.75 1023.66 1023.50 1023.26 1022.94 1022.55 1022.13 1021.70 1021.29 1020.94 1020.69 1020.56 1020.57 1020.71 1020.99 1021.38 1021.85 1022.36 1022.90 1023.41
1019.58 1019.81 1020.02 1020.23 1020.44 1020.64 1020.85 1021.08 1021.31 1021.55 1021.81 1022.07 1022.33 1022.58 1022.82 1023.04 1023.23 1023.37 1023.47 1023.50 1023.45 1023.33 1023.14 1022.89 1022.58 1022.26 1021.93 1021.65 1021.43 1021.30 1021.27 1021.35 1021.53 1021.80 1022.13 1022.52 1022.91 1023.31
1018.78 1018.98 1019.19 1019.39 1019.59 1019.80 1020.02 1020.25 1020.49 1020.75 1021.02 1021.31 1021.60 1021.89 1022.18 1022.46 1022.72 1022.94 1023.12 1023.24 1023.30 1023.29 1023.22 1023.08 1022.89 1022.67 1022.44 1022.22 1022.05 1021.93 1021.88 1021.90 1021.99 1022.15 1022.36 1022.60 1022.86 1023.14
1017.93 1018.12 1018.33 1018.54 1018.75 1018.98 1019.22 1019.47 1019.74 1020.02 1020.32 1020.63 1020.95 1021.27 1021.59 1021.91 1022.21 1022.49 1022.73 1022.92 1023.06 1023.14 1023.15 1023.11 1023.02 1022.89 1022.75 1022.60 1022.47 1022.36 1022.30 1022.28 1022.31 1022.37 1022.47 1022.59 1022.73 1022.89
1017.02 1017.22 1017.44 1017.67 1017.91 1018.17 1018.45 1018.74 1019.04 1019.36 1019.68 1020.02 1020.37 1020.72 1021.06 1021.41 1021.73 1022.04 1022.31 1022.55 1022.74 1022.87 1022.95 1022.98 1022.96 1022.91 1022.83 1022.74 1022.66 1022.58 1022.52 1022.47 1022.45 1022.45 1022.46 1022.48 1022.52 1022.58
1016.06 1016.27 1016.50 1016.77 1017.05 1017.35 1017.68 1018.02 1018.37 1018.73 1019.09 1019.46 1019.83 1020.20 1020.56 1020.92 1021.25 1021.57 1021.86 1022.12 1022.33 1022.50 1022.62 1022.69 1022.73 1022.73 1022.71 1022.67 1022.62 1022.57 1022.52 1022.47 1022.42 1022.38 1022.33 1022.29 1022.25 1022.23
1015.04 1015.27 1015.52 1015.82 1016.15 1016.50 1016.88 1017.27 1017.67 1018.08 1018.48 1018.89 1019.28 1019.67 1020.04 1020.40 1020.74 1021.06 1021.35 1021.61 1021.83 1022.02 1022.16 1022.27 1022.34 1022.39 1022.41 1022.41 1022.40 1022.38 1022.35 1022.31 1022.25 1022.19 1022.11 1022.03 1021.95 1021.87
1013.99 1014.22 1014.50 1014.82 1015.19 1015.59 1016.02 1016.47 1016.92 1017.37 1017.81 1018.25 1018.66 1019.06 1019.45 1019.81 1020.15 1020.47 1020.76 1021.02 1021.25 1021.45 1021.61 1021.75 1021.85 1021.93 1021.99 1022.03 1022.05 1022.06 1022.06 1022.03 1021.99 1021.92 1021.84 1021.74 1021.63 1021.52
1012.92 1013.16 1013.45 1013.80 1014.20 1014.64 1015.11 1015.59 1016.09 1016.57 1017.05 1017.51 1017.95 1018.37 1018.76 1019.12 1019.47 1019.79 1020.09 1020.35 1020.60 1020.81 1021.00 1021.17 1021.30 1021.42 1021.51 1021.59 1021.64 1021.68 1021.70 1021.70 1021.67 1021.61 1021.53 1021.43 1021.31 1021.18
1011.88 1012.11 1012.41 1012.77 1013.19 1013.65 1014.15 1014.66 1015.19 1015.70 1016.21 1016.69 1017.14 1017.57 1017.98 1018.35 1018.71 1019.04 1019.35 1019.64 1019.91 1020.15 1020.37 1020.57 1020.74 1020.89 1021.02 1021.13 1021.22 1021.28 1021.32 1021.34 1021.32 1021.28 1021.20 1021.10 1020.98 1020.84
1010.88 1011.11 1011.40 1011.77 1012.19 1012.66 1013.17 1013.70 1014.25 1014.78 1015.30 1015.80 1016.27 1016.72 1017.13 1017.52 1017.89 1018.25 1018.58 1018.90 1019.20 1019.48 1019.74 1019.98 1020.20 1020.39 1020.55 1020.69 1020.80 1020.88 1020.93 1020.95 1020.94 1020.90 1020.84 1020.74 1020.62 1020.49
1009.95 1010.17 1010.46 1010.81 1011.23 1011.70 1012.22 1012.76 1013.31 1013.85 1014.39 1014.90 1015.38 1015.84 1016.27 1016.68 1017.07 1017.45 1017.81 1018.16 1018.50 1018.83 1019.13 1019.41 1019.67 1019.89 1020.09 1020.25 1020.37 1020.46 1020.51 1020.53 1020.52 1020.48 1020.41 1020.32 1020.21 1020.09
1009.08 1009.30 1009.57 1009.92 1010.33 1010.80 1011.30 1011.84 1012.40 1012.95 1013.49 1014.01 1014.51 1014.98 1015.43 1015.85 1016.26 1016.66 1017.06 1017.44 1017.82 1018.18 1018.53 1018.85 1019.14 1019.39 1019.61 1019.78 1019.91 1020.00 1020.05 1020.06 1020.04 1019.99 1019.92 1019.83 1019.73 1019.62
Thickness
5524 5524 5525 5525 5525 5525 5524 5523 5520 5519 5519 5518 5517 5517 5514 5513 5512 5512 5511 5509 5508 5508 5507 5506 5505 5504 5502 5501 5501 5500 5499 5500 5499 5498 5497 5496 5496 5496
5515 5515 5516 5516 5516 5515 5514 5513 5512 5511 5509 5508 5506 5506 5504 5503 5501 5501 5500 5499 5498 5497 5497 5495 5494 5493 5492 5491 5490 5490 5490 5490 5489 5487 5487 5487 5487 5487
5506 5507 5508 5507 5506 5506 5505 5503 5502 5500 5499 5497 5495 5495 5493 5492 5491 5490 5489 5488 5487 5486 5485 5485 5484 5482 5481 5480 5479 5479 5479 5479 5478 5478 5477 5477 5478 5478
5499 5499 5499 5498 5497 5496 5495 5494 5492 5490 5489 5487 5485 5483 5482 5481 5479 5478 5477 5476 5476 5475 5474 5474 5473 5472 5471 5470 5469 5468 5468 5467 5467 5467 5467 5468 5468 5468
5491 5491 5490 5489 5488 5487 5486 5484 5482 5481 5479 5476 5474 5472 5470 5469 5467 5466 5465 5465 5464 5464 5464 5463 5462 5461 5460 5459 5458 5458 5457 5457 5457 5457 5457 5457 5458 5458
5482 5483 5482 5481 5480 5478 5476 5474 5472 5470 5468 5466 5464 5461 5459 5457 5455 5454 5453 5453 5453 5453 5452 5452 5451 5450 5449 5449 5448 5447 5447 5447 5447 5447 5447 5448 5448 5449
5474 5473 5473 5473 5472 5470 5468 5466 5463 5460 5457 5455 5453 5450 5448 5445 5443 5442 5441 5441 5441 5441 5441 5441 5441 5440 5439 5438 5438 5437 5437 5437 5437 5438 5438 5438 5439 5439
5465 5464 5463 5462 5461 5460 5459 5457 5455 5452 5448 5445 5443 5441 5439 5437 5433 5431 5430 5430 5431 5431 5429 5430 5429 5429 5429 5429 5428 5428 5428 5428 5428 5429 5429 5429 5429 5430
5455 5454 5453 5453 5451 5449 5448 5446 5444 5443 5441 5438 5435 5433 5431 5428 5425 5422 5421 5420 5421 5420 5418 5420 5420 5420 5420 5420 5420 5420 5419 5419 5419 5419 5420 5420 5420 5420
5446 5445 5443 5443 5441 5439 5437 5435 5434 5433 5431 5430 5428 5426 5424 5421 5418 5416 5414 5412 5411 5410 5409 5409 5410 5410 5412 5411 5411 5411 5410 5410 5410 5410 5410 5411 5411 5411
5437 5435 5434 5434 5433 5431 5429 5426 5424 5423 5421 5420 5419 5417 5415 5413 5410 5407 5405 5404 5403 5403 5401 5399 5400 5400 5402 5403 5402 5401 5401 5400 5400 5401 5401 5402 5402 5402
5428 5426 5426 5425 5424 5422 5420 5418 5416 5414 5412 5411 5409 5408 5406 5404 5402 5400 5398 5396 5394 5393 5393 5391 5390 5389 5391 5393 5393 5392 5391 5391 5391 5391 5392 5393 5394 5394
5418 5418 5417 5416 5416 5414 5413 5410 5409 5406 5404 5402 5400 5398 5397 5395 5394 5392 5391 5389 5387 5386 5385 5383 5381 5380 5379 5381 5384 5383 5382 5382 5382 5383 5383 5384 5385 5386
5410 5410 5409 5408 5407 5406 5404 5403 5400 5399 5396 5394 5392 5390 5388 5387 5386 5385 5384 5382 5381 5380 5378 5376 5374 5372 5371 5371 5373 5375 5374 5373 5373 5374 5375 5376 5377 5377
5402 5403 5402 5400 5398 5397 5395 5393 5392 5391 5389 5387 5386 5383 5382 5380 5379 5377 5376 5375 5374 5373 5371 5370 5368 5366 5365 5363 5364 5364 5365 5366 5365 5366 5367 5368 5369 5370
5393 5393 5393 5391 5389 5388 5386 5385 5384 5384 5383 5381 5378 5376 5374 5373 5371 5370 5369 5368 5367 5366 5365 5363 5362 5361 5359 5358 5357 5357 5357 5357 5358 5358 5359 5361 5362 5363
5383 5383 5382 5381 5380 5378 5378 5377 5376 5375 5374 5373 5371 5369 5367 5366 5365 5364 5363 5362 5360 5359 5358 5357 5356 5355 5354 5352 5351 5352 5351 5351 5351 5352 5353 5354 5356 5356
5374 5374 5373 5372 5372 5371 5370 5369 5368 5368 5367 5366 5364 5363 5361 5359 5358 5357 5356 5355 5354 5353 5351 5350 5349 5348 5348 5348 5347 5346 5345 5345 5346 5346 5345 5347 5350 5351
5366 5366 5365 5364 5364 5363 5362 5362 5361 5360 5360 5359 5357 5356 5354 5353 5351 5351 5349 5348 5347 5346 5344 5343 5341 5341 5340 5340 5341 5340 5339 5339 5339 5339 5339 5340 5341 5345
5359 5358 5358 5357 5356 5356 5355 5355 5354 5353 5352 5352 5351 5350 5348 5346 5345 5345 5343 5342 5341 5339 5338 5337 5335 5334 5334 5333 5333 5333 5333 5332 5332 5333 5333 5334 5336 5339
5351 5350 5350 5349 5349 5349 5349 5348 5347 5346 5346 5346 5345 5343 5342 5340 5340 5339 5337 5336 5335 5333 5332 5332 5331 5330 5328 5328 5327 5327 5327 5327 5327 5326 5327 5328 5330 5333
5343 5342 5342 5342 5341 5342 5342 5341 5341 5340 5340 5340 5339 5338 5336 5335 5334 5333 5331 5330 5329 5328 5327 5326 5325 5324 5323 5322 5322 5321 5321 5322 5322 5322 5322 5322 5322 5325
5336 5336 5335 5335 5335 5335 5335 5335 5335 5334 5334 5334 5333 5332 5331 5329 5328 5327 5325 5324 5323 5322 5321 5319 5318 5317 5317 5316 5316 5315 5315 5315 5316 5317 5319 5319 5320 5321